Location: Rancho Del Sol Observatory
(38.7214°N, 120.6350°W)
Time: 21:39:11
(UTC-08:00)

Transit 2A Rocket - All Passes

Search period start: 18 January 2020 00:00
Search period end: 28 January 2020 00:00
Orbit: 593 x 910 km, 66.7° (Epoch: 18 January)

Date Brightness Start Highest point End Pass type
(mag) Time Alt. Az. Time Alt. Az. Time Alt. Az.
18 Jan - 05:59:57 10° S 06:03:48 31° ESE 06:07:36 10° NE visible
18 Jan - 07:42:51 10° WSW 07:46:19 23° NW 07:49:49 10° N daylight
18 Jan - 14:43:34 10° N 14:47:20 22° NE 14:51:20 10° ESE daylight
18 Jan - 16:25:20 10° NW 16:30:03 48° WSW 16:35:11 10° S daylight
19 Jan - 05:18:50 10° SE 05:21:30 16° ESE 05:24:07 10° ENE visible
19 Jan - 06:59:31 10° SW 07:03:38 42° WNW 07:07:44 10° NNE daylight
19 Jan - 14:02:04 10° NNE 14:04:29 14° NE 14:06:59 10° ENE daylight
19 Jan - 15:42:40 10° NNW 15:47:33 86° WSW 15:52:56 10° SSE daylight
20 Jan - 06:16:43 10° SSW 06:21:04 83° WNW 06:25:22 10° NNE visible
20 Jan - 15:00:14 10° NNW 15:05:00 53° ENE 15:10:13 10° SE daylight
20 Jan - 16:43:52 10° WNW 16:47:15 18° WSW 16:50:49 10° SSW daylight
21 Jan - 05:34:25 10° S 05:38:35 48° ESE 05:42:44 10° NE visible
21 Jan - 07:18:38 10° W 07:21:23 16° NW 07:24:10 10° N daylight
21 Jan - 14:18:02 10° N 14:22:22 31° NE 14:27:01 10° ESE daylight
21 Jan - 16:00:28 10° NW 16:04:53 32° WSW 16:09:39 10° S daylight
22 Jan - 04:52:41 10° SSE 04:56:13 24° ESE 04:59:42 10° NE visible
22 Jan - 06:34:52 10° WSW 06:38:36 28° NW 06:42:21 10° N visible
22 Jan - 13:36:09 10° N 13:39:37 19° NE 13:43:15 10° E daylight
22 Jan - 15:17:35 10° NW 15:22:26 59° WSW 15:27:45 10° SSE daylight
23 Jan - 04:12:07 10° SE 04:13:56 12° ESE 04:15:45 10° E visible
23 Jan - 05:51:43 10° SW 05:55:57 53° WNW 06:00:10 10° NNE visible
23 Jan - 12:55:03 10° NNE 12:56:43 12° NE 12:58:25 10° ENE daylight
23 Jan - 14:35:01 10° NNW 14:39:57 78° ENE 14:45:20 10° SSE daylight
23 Jan - 16:20:01 10° W 16:22:00 12° WSW 16:24:01 10° SW daylight
24 Jan - 05:09:05 10° SSW 05:13:24 78° ESE 05:17:43 10° NNE visible
24 Jan - 06:55:01 10° WNW 06:56:31 12° NW 06:58:01 10° NNW daylight
24 Jan - 13:52:40 10° NNW 13:57:21 44° ENE 14:02:27 10° SE daylight
24 Jan - 15:35:48 10° WNW 15:39:41 23° WSW 15:43:50 10° SSW daylight
25 Jan - 04:26:58 10° S 04:30:59 38° ESE 04:34:58 10° NE visible
25 Jan - 06:10:28 10° W 06:13:38 20° NW 06:16:49 10° N visible
25 Jan - 13:10:33 10° N 13:14:40 26° NE 13:19:05 10° ESE daylight
25 Jan - 14:52:38 10° NW 14:57:18 40° WSW 15:02:21 10° S daylight
26 Jan - 03:45:32 10° SSE 03:48:39 19° ESE 03:51:44 10° ENE visible
26 Jan - 05:26:57 10° WSW 05:30:53 34° NW 05:34:52 10° NNE visible
26 Jan - 12:28:48 10° N 12:31:52 16° NE 12:35:04 10° E daylight
26 Jan - 14:09:53 10° NNW 14:14:50 73° WSW 14:20:16 10° SSE daylight
27 Jan - 04:43:59 10° SW 04:48:17 67° WNW 04:52:34 10° NNE visible
27 Jan - 13:27:23 10° NNW 13:32:18 64° ENE 13:37:40 10° SE daylight
27 Jan - 15:11:30 10° WNW 15:14:27 15° WSW 15:17:32 10° SW daylight
